Location: Arbon
(43.0005°N, 0.7472°E)
Time: 21:14:30
(UTC+00:00)

Tiangong - Pass Details

Date: 04 October 2021
Orbit: 382 x 385 km, 41.5° (Epoch: 18 October)

Event Time Altitude Azimuth Distance (km) Brightness Sun altitude
Exits shadow 04:03:02 42° 120° (ESE) 553 2.1 -21.6°
Drops below altitude 10° 04:05:20 10° 102° (ESE) 1,396 4.8 -21.2°
Sets 04:07:24 0° 99° (E) 2,248 6.1 -20.9°
